Weather History for Roseau, MN

Change the Weather History Date:

Wednesday, October 30, 2013

  Actual Average Record
Temperature  
Mean Temperature 31 °F -  
Max Temperature 41 °F 46 °F 73 °F (1950)
Min Temperature 21 °F 28 °F 3 °F (1991)
Degree Days  
Heating Degree Days 34    
Moisture  
Dew Point 28 °F    
Average Humidity 77    
Maximum Humidity 87    
Minimum Humidity 65    
Precipitation  
Precipitation 0.00 in - - ()
Sea Level Pressure  
Sea Level Pressure 29.89 in    
Wind  
Wind Speed 4 mph (South)    
Max Wind Speed 12 mph    
Max Gust Speed -    
Visibility 9 miles    
Events      
Averages and records for this station are not official NWS values.
T = Trace of Precipitation, MM = Missing Value Source: NWS Daily Summary

Daily Weather History Graph

Daily Weather History Graph

Search for Another Location

Airport:

Trip Planner

Search our weather history database for the weather conditions in past years. The results will help you decide how hot, cold, wet, or windy it might be!

Date:

Astronomy

Oct. 30, 2013 Rise Set
Actual Time 8:06 AM CDT 6:05 PM CDT
Civil Twilight 7:34 AM CDT 6:38 PM CDT
Nautical Twilight 6:56 AM CDT 7:15 PM CDT
Astronomical Twilight 6:20 AM CDT 7:51 PM CDT
Moon 3:37 AM CDT (10/30) 4:08 PM CDT (10/30)
Length of Visible Light 11h 04m
Length of Day
9h 58m
Waning Crescent, 17% of the Moon is Illuminated
Oct 30
Waning Crescent
Nov 3
New
Nov 9
First Quarter
Nov 17
Full
Nov 25
Last Quarter

Hourly Weather History & Observations

Time (CDT) Temp. Windchill Dew Point Humidity Pressure Visibility Wind Dir Wind Speed Gust Speed Precip Events Conditions
12:14 AM 21.2 °F 16.4 °F 15.8 °F 80% 30.11 in 10.0 mi SSW 3.5 mph - N/A   Clear
12:34 AM 23.0 °F 18.4 °F 15.8 °F 74% 30.10 in 10.0 mi SSW 3.5 mph - N/A   Clear
12:54 AM 21.2 °F 13.6 °F 15.8 °F 80% 30.09 in 10.0 mi South 5.8 mph - N/A   Clear
1:14 AM 21.2 °F 13.6 °F 15.8 °F 80% 30.09 in 10.0 mi SSW 5.8 mph - N/A   Clear
1:34 AM 21.2 °F 14.9 °F 15.8 °F 80% 30.09 in 10.0 mi SSW 4.6 mph - N/A   Clear
1:54 AM 23.0 °F 18.4 °F 15.8 °F 74% 30.08 in 10.0 mi SSW 3.5 mph - N/A   Clear
2:14 AM 21.2 °F 14.9 °F 15.8 °F 80% 30.08 in 10.0 mi SSW 4.6 mph - N/A   Clear
2:34 AM 21.2 °F 13.6 °F 15.8 °F 80% 30.07 in 10.0 mi South 5.8 mph - N/A   Scattered Clouds
2:54 AM 21.2 °F 14.9 °F 17.6 °F 86% 30.06 in 10.0 mi South 4.6 mph - N/A   Scattered Clouds
3:15 AM 24.8 °F 19.1 °F 17.6 °F 74% 30.06 in 10.0 mi South 4.6 mph - N/A   Mostly Cloudy
3:34 AM 26.6 °F 22.6 °F 19.4 °F 74% 30.05 in 10.0 mi South 3.5 mph - N/A   Overcast
3:54 AM 28.4 °F - 21.2 °F 74% 30.04 in 10.0 mi Calm Calm - N/A   Overcast
4:14 AM 28.4 °F - 23.0 °F 80% 30.04 in 10.0 mi Calm Calm - N/A   Overcast
4:34 AM 28.4 °F 23.3 °F 23.0 °F 80% 30.04 in 10.0 mi South 4.6 mph - N/A   Overcast
4:54 AM 28.4 °F - 23.0 °F 80% 30.03 in 10.0 mi Calm Calm - N/A   Overcast
5:14 AM 30.2 °F - 23.0 °F 75% 30.03 in 10.0 mi Calm Calm - N/A   Overcast
5:34 AM 30.2 °F - 23.0 °F 75% 30.03 in 10.0 mi Calm Calm - N/A   Overcast
5:54 AM 30.2 °F - 24.8 °F 80% 30.03 in 10.0 mi Calm Calm - N/A   Overcast
6:14 AM 30.2 °F - 24.8 °F 80% 30.02 in 10.0 mi Calm Calm - N/A   Overcast
6:34 AM 30.2 °F 26.7 °F 24.8 °F 80% 30.01 in 10.0 mi SSE 3.5 mph - N/A   Overcast
6:54 AM 30.2 °F 26.7 °F 24.8 °F 80% 30.00 in 10.0 mi SSE 3.5 mph - N/A   Overcast
7:14 AM 30.2 °F 26.7 °F 24.8 °F 80% 29.99 in 10.0 mi SSE 3.5 mph - N/A   Overcast
7:34 AM 30.2 °F - 24.8 °F 80% 29.99 in 10.0 mi Calm Calm - N/A   Overcast
7:54 AM 30.2 °F 26.7 °F 24.8 °F 80% 29.99 in 10.0 mi SSE 3.5 mph - N/A   Overcast
8:14 AM 32.0 °F 28.7 °F 24.8 °F 75% 29.99 in 10.0 mi South 3.5 mph - N/A   Overcast
8:34 AM 32.0 °F 28.7 °F 24.8 °F 75% 29.99 in 10.0 mi SSE 3.5 mph - N/A   Overcast
8:54 AM 32.0 °F 28.7 °F 24.8 °F 75% 29.98 in 10.0 mi SSE 3.5 mph - N/A   Overcast
9:14 AM 33.8 °F 29.6 °F 24.8 °F 70% 29.98 in 10.0 mi SSE 4.6 mph - N/A   Overcast
9:34 AM 33.8 °F 28.6 °F 26.6 °F 75% 29.97 in 10.0 mi SSE 5.8 mph - N/A   Overcast
9:54 AM 33.8 °F 28.6 °F 26.6 °F 75% 29.97 in 10.0 mi South 5.8 mph - N/A   Overcast
10:14 AM 35.6 °F 31.7 °F 26.6 °F 70% 29.96 in 10.0 mi SSE 4.6 mph - N/A   Overcast
10:34 AM 35.6 °F 30.7 °F 26.6 °F 70% 29.94 in 10.0 mi SSE 5.8 mph - N/A   Overcast
10:54 AM 35.6 °F 30.7 °F 26.6 °F 70% 29.94 in 10.0 mi South 5.8 mph - N/A   Overcast
11:14 AM 37.4 °F 32.1 °F 26.6 °F 65% 29.94 in 10.0 mi SSE 6.9 mph - N/A   Overcast
11:34 AM 37.4 °F 31.4 °F 28.4 °F 70% 29.94 in 10.0 mi South 8.1 mph - N/A   Overcast
11:54 AM 37.4 °F 31.4 °F 28.4 °F 70% 29.94 in 10.0 mi SSW 8.1 mph - N/A   Overcast
12:14 PM 37.4 °F 32.8 °F 28.4 °F 70% 29.93 in 10.0 mi South 5.8 mph - N/A   Mostly Cloudy
12:34 PM 37.4 °F 32.8 °F 28.4 °F 70% 29.92 in 10.0 mi SSW 5.8 mph - N/A   Overcast
12:54 PM 39.2 °F 35.9 °F 30.2 °F 70% 29.91 in 10.0 mi SSW 4.6 mph - N/A   Overcast
1:14 PM 39.2 °F 35.9 °F 30.2 °F 70% 29.89 in 10.0 mi South 4.6 mph - N/A   Scattered Clouds
1:34 PM 39.2 °F 34.2 °F 30.2 °F 70% 29.88 in 10.0 mi SSW 6.9 mph - N/A   Clear
1:54 PM 39.2 °F 35.9 °F 30.2 °F 70% 29.86 in 10.0 mi South 4.6 mph - N/A   Scattered Clouds
2:14 PM 39.2 °F 35.0 °F 30.2 °F 70% 29.85 in 10.0 mi South 5.8 mph - N/A   Scattered Clouds
2:34 PM 39.2 °F 34.2 °F 32.0 °F 75% 29.84 in 10.0 mi South 6.9 mph - N/A   Scattered Clouds
2:54 PM 39.2 °F 35.0 °F 32.0 °F 75% 29.82 in 10.0 mi South 5.8 mph - N/A   Scattered Clouds
3:14 PM 39.2 °F 34.2 °F 32.0 °F 75% 29.82 in 10.0 mi South 6.9 mph - N/A   Scattered Clouds
3:34 PM 41.0 °F 35.8 °F 33.8 °F 76% 29.81 in 10.0 mi South 8.1 mph - N/A   Scattered Clouds
3:54 PM 41.0 °F 35.8 °F 33.8 °F 76% 29.81 in 10.0 mi South 8.1 mph - N/A   Scattered Clouds
4:14 PM 41.0 °F 35.8 °F 33.8 °F 76% 29.80 in 10.0 mi South 8.1 mph - N/A   Mostly Cloudy
4:34 PM 41.0 °F 35.8 °F 33.8 °F 76% 29.80 in 10.0 mi South 8.1 mph - N/A   Mostly Cloudy
4:54 PM 41.0 °F 35.8 °F 33.8 °F 76% 29.79 in 10.0 mi South 8.1 mph - N/A   Scattered Clouds
5:14 PM 41.0 °F 37.1 °F 33.8 °F 76% 29.78 in 10.0 mi South 5.8 mph - N/A   Scattered Clouds
5:34 PM 41.0 °F 37.1 °F 33.8 °F 76% 29.77 in 10.0 mi South 5.8 mph - N/A   Mostly Cloudy
5:54 PM 39.2 °F 34.2 °F 33.8 °F 81% 29.75 in 10.0 mi South 6.9 mph - N/A   Scattered Clouds
6:14 PM 39.2 °F 33.6 °F 33.8 °F 81% 29.74 in 10.0 mi South 8.1 mph - N/A   Mostly Cloudy
6:34 PM 39.2 °F 34.2 °F 33.8 °F 81% 29.74 in 10.0 mi South 6.9 mph - N/A   Mostly Cloudy
6:54 PM 39.2 °F 35.9 °F 33.8 °F 81% 29.74 in 10.0 mi South 4.6 mph - N/A   Overcast
7:15 PM 39.2 °F 35.9 °F 33.8 °F 81% 29.73 in 10.0 mi SSW 4.6 mph - N/A   Overcast
7:34 PM 39.2 °F 37.0 °F 33.8 °F 81% 29.72 in 10.0 mi South 3.5 mph - N/A   Mostly Cloudy
7:54 PM 39.2 °F 37.0 °F 33.8 °F 81% 29.72 in 10.0 mi SSW 3.5 mph - N/A   Overcast
8:14 PM 39.2 °F - 33.8 °F 81% 29.71 in 10.0 mi Calm Calm - N/A   Overcast
8:34 PM 39.2 °F 35.9 °F 33.8 °F 81% 29.70 in 10.0 mi SSW 4.6 mph - N/A   Overcast
8:54 PM 39.2 °F 37.0 °F 33.8 °F 81% 29.70 in 10.0 mi SW 3.5 mph - N/A   Mostly Cloudy
9:14 PM 39.2 °F - 33.8 °F 81% 29.70 in 7.0 mi Calm Calm - N/A   Overcast
9:34 PM 39.2 °F 34.2 °F 33.8 °F 81% 29.70 in 7.0 mi SSW 6.9 mph - N/A   Overcast
9:54 PM 39.2 °F 33.0 °F 33.8 °F 81% 29.70 in 5.0 mi SSW 9.2 mph - N/A   Haze
10:14 PM 37.4 °F 32.1 °F 33.8 °F 87% 29.70 in 5.0 mi SSW 6.9 mph - N/A   Overcast
10:34 PM 37.4 °F 29.8 °F 33.8 °F 87% 29.70 in 3.0 mi SSW 11.5 mph - N/A   Haze
10:54 PM 37.4 °F 32.1 °F 33.8 °F 87% 29.69 in 4.0 mi SSW 6.9 mph - N/A   Haze
11:14 PM 37.4 °F 32.1 °F 33.8 °F 87% 29.68 in 4.0 mi SW 6.9 mph - N/A   Haze
11:34 PM 37.4 °F 32.1 °F 33.8 °F 87% 29.67 in 4.0 mi SSW 6.9 mph - N/A   Haze
11:54 PM 37.4 °F 32.1 °F 33.8 °F 87% 29.66 in 4.0 mi SW 6.9 mph - N/A   Haze